Location: Newark
(34.9756°N, 138.3828°E)
Time: 05:35:50
(UTC+00:00)

ISS - Visible Passes

Search period start: 10 December 2019 00:00
Search period end: 20 December 2019 00:00
Orbit: 411 x 421 km, 51.6° (Epoch: 10 December)

Date Brightness Start Highest point End Pass type
(mag) Time Alt. Az. Time Alt. Az. Time Alt. Az.
10 Dec -2.5 08:09:21 10° NNW 08:12:09 24° NE 08:14:57 10° E visible
10 Dec -1.6 09:45:54 10° WNW 09:48:08 26° WSW 09:48:08 26° WSW visible
11 Dec -3.2 08:57:11 10° NW 09:00:30 59° SW 09:03:12 14° SSE visible
12 Dec -3.8 08:08:41 10° NW 08:12:02 69° NE 08:15:22 10° SE visible
13 Dec -0.7 08:57:42 10° W 09:00:01 17° SW 09:02:19 10° S visible
14 Dec -1.7 08:08:36 10° WNW 08:11:38 32° SW 08:14:40 10° SSE visible
19 Dec -0.6 20:46:59 10° S 20:49:17 18° SE 20:51:34 10° E visible
